Location: Killam
(52.7910°N, 111.8608°W)
Time: 08:54:55
(UTC+00:00)

Transit 4A - Visible Passes

Search period start: 17 February 2026 00:00
Search period end: 27 February 2026 00:00
Orbit: 865 x 976 km, 66.8° (Epoch: 16 February)

Date Brightness Start Highest point End Pass type
(mag) Time Alt. Az. Time Alt. Az. Time Alt. Az.
17 Feb 9.2 10:48:15 31° ESE 10:48:28 31° ESE 10:53:40 10° NE visible
17 Feb 7.8 12:31:45 34° WSW 12:34:24 68° NW 12:40:30 10° NE visible
18 Feb 8.7 10:57:06 42° ESE 10:57:06 42° ESE 11:02:41 10° NE visible
18 Feb 8.0 12:40:36 31° WSW 12:43:16 53° NW 12:49:16 10° NE visible
19 Feb 10.5 09:22:24 10° E 09:22:24 10° E 09:22:42 10° E visible
19 Feb 8.2 11:05:53 57° ESE 11:05:53 57° ESE 11:11:35 10° NE visible
19 Feb 8.3 12:49:22 26° W 12:52:13 43° NW 12:58:03 10° NE visible
20 Feb 10.3 09:31:07 15° E 09:31:07 15° E 09:32:46 10° ENE visible
20 Feb 7.9 11:14:36 75° E 11:14:36 75° E 11:20:25 10° NE visible
20 Feb 8.6 12:58:04 22° W 13:01:13 36° NNW 13:06:51 10° NE visible
21 Feb 10.0 09:39:46 19° ENE 09:39:46 19° ENE 09:42:08 10° ENE visible
21 Feb 7.7 11:23:15 81° NNW 11:23:15 81° NNW 11:29:14 10° NE visible
21 Feb 8.9 13:06:43 18° WNW 13:10:17 31° NNW 13:15:42 10° NE visible
22 Feb 9.7 09:48:24 24° ENE 09:48:24 24° ENE 09:51:15 10° NE visible
22 Feb 7.8 11:31:53 64° NW 11:31:54 64° NW 11:38:01 10° NE visible
22 Feb 9.1 13:15:20 14° WNW 13:19:24 27° NNW 13:24:35 10° NE visible
23 Feb 9.4 09:56:59 30° ENE 09:56:59 30° ENE 10:00:14 10° NE visible
23 Feb 8.1 11:40:27 50° NW 11:40:48 51° NW 11:46:47 10° NE visible
23 Feb 9.3 13:23:55 11° WNW 13:28:33 24° NNW 13:33:32 10° NE visible
24 Feb 9.2 10:05:31 36° ENE 10:05:31 36° ENE 10:09:07 10° NE visible
24 Feb 8.4 11:48:59 39° NW 11:49:46 41° NW 11:55:34 10° NE visible
24 Feb 9.4 13:33:00 10° WNW 13:37:44 23° N 13:42:34 10° NE visible
25 Feb 8.9 10:14:02 41° NE 10:14:02 41° NE 10:17:57 10° NE visible
25 Feb 8.7 11:57:30 31° NW 11:58:47 34° NNW 12:04:22 10° NE visible
25 Feb 9.5 13:42:16 10° NW 13:46:56 22° N 13:51:42 10° NE visible
26 Feb 10.4 08:39:03 13° ENE 08:39:03 13° ENE 08:39:45 10° NE visible
26 Feb 8.7 10:22:31 45° NNE 10:22:31 45° NNE 10:26:45 10° NE visible
26 Feb 9.0 12:05:59 25° NW 12:07:52 30° NNW 12:13:13 10° NE visible
